Location: Arlington
(40.6323°N, 74.1651°W)
Time: 11:21:01
(UTC+00:00)

NOAA 11 - Pass Details

Date: 01 March 2020
Orbit: 834 x 849 km, 98.4° (Epoch: 06 April)

Event Time Altitude Azimuth Distance (km) Brightness Sun altitude
Rises 10:57:19 0° 34° (NE) 3,392 7.8 -7.0°
Reaches altitude 10° 11:01:00 10° 60° (ENE) 2,454 7.6 -6.3°
Maximum altitude 11:03:40 14° 89° (E) 2,197 8.0 -5.7°
Drops below altitude 10° 11:06:20 10° 119° (ESE) 2,450 7.9 -5.2°
Sets 11:09:59 0° 145° (SE) 3,381 8.0 -4.6°
